Regional Weather Roundup
Issued by NWS

Home | Current Version | Previous Version | Graphics & Text | Print | Product List | Glossary On
Versions: 1 2 3 4 5 6 7 8 9 10 11 12 13 14 15 16 17 18 19 20 21 22 23 24 25 26 27 28 29 30 31 32 33 34 35 36 37 38 39 40 41 42 43 44 45 46 47 48 49 50
000
ASUS43 KMKX 230611
RWRWI

WISCONSIN REGIONAL WEATHER ROUNDUP
NATIONAL WEATHER SERVICE MILWAUKEE/SULLIVAN WI
1200 AM CST THU FEB 23 2017

NOTE: "FAIR" INDICATES FEW OR NO CLOUDS BELOW 12,000 FEET WITH NO
SIGNIFICANT WEATHER AND/OR OBSTRUCTIONS TO VISIBILITY.

WIZ001-002-006>008-014>016-023>028-230700-
NORTHWEST WISCONSIN

CITY           SKY/WX    TMP DP  RH WIND       PRES   REMARKS
SUPERIOR ARPT  MIX PCPN  34  32  92 N7        29.79R WCI  28
6HR MIN TEMP:  32; 6HR MAX TEMP:  37; 6HR PCP:  0.19;

ASHLAND        LGT SNOW  32  32 100 N10       29.75R FOG     WCI  24
6HR MIN TEMP:  32; 6HR MAX TEMP:  35; 6HR PCP:  0.11;

HAYWARD        CLOUDY    34  32  92 N8        29.72R WCI  27
6HR MIN TEMP:  34; 6HR MAX TEMP:  45; 6HR PCP:  0.08;

SIREN          CLOUDY    34  33  95 N8        29.77R WCI  27
6HR MIN TEMP:  34; 6HR MAX TEMP:  47; 6HR PCP:  0.02;

CUMBERLAND     CLOUDY    34  32  93 N9        29.73R WCI  26
RICE LAKE      CLOUDY    37  34  89 N10       29.73R WCI  30
6HR MIN TEMP:  37; 6HR MAX TEMP:  46;

CHETEK         CLOUDY    37  34  90 N6        29.71R WCI  32
6HR MIN TEMP:  37; 6HR MAX TEMP:  46;

LADYSMITH      CLOUDY    36  33  90 N10G18    29.68R WCI  28
6HR MIN TEMP:  36; 6HR MAX TEMP:  46;

EAU CLAIRE     CLOUDY    41  35  79 N14G22    29.68R
6HR MIN TEMP:  41; 6HR MAX TEMP:  52;

MENOMONIE      CLOUDY    40  35  80 NW14      29.70R WCI  33
6HR MIN TEMP:  40; 6HR MAX TEMP:  52;

NEW RICHMOND   CLOUDY    36  32  85 N15G22    29.76R WCI  27
6HR MIN TEMP:  36; 6HR MAX TEMP:  46;

OSCEOLA        CLOUDY    35  35 100 N12       29.79R WCI  27
6HR MIN TEMP:  35; 6HR MAX TEMP:  46;

$$

WIZ003>005-009-010-017-018-230700-
NORTH CENTRAL WISCONSIN

CITY           SKY/WX    TMP DP  RH WIND       PRES   REMARKS
MANITOWISH WTR LGT SNOW  32  32 100 N7        29.64R WCI  26
6HR MIN TEMP:  32; 6HR MAX TEMP:  40; 6HR PCP:  0.36;

ARBOR VITAE    FLURRIES  36  35  95 NE8         N/A  WCI  30
6HR MIN TEMP:  36; 6HR MAX TEMP:  43; 6HR PCP:  0.14;

WOODRUFF       FLURRIES  36  35  95 NE8         N/A  WCI  30
6HR MIN TEMP:  36; 6HR MAX TEMP:  43; 6HR PCP:  0.14;

RHINELANDER    CLOUDY    36  36 100 VRB7G18   29.61R WCI  30
6HR MIN TEMP:  37; 6HR MAX TEMP:  44; 6HR PCP:  0.04;

EAGLE RIVER    LGT SNOW  33  33 100 NW14      29.65R WCI  23
6HR MIN TEMP:  33; 6HR MAX TEMP:  42;

LAND O LAKES   LGT SNOW  33  33 100 N8G17     29.65R WCI  26
6HR MIN TEMP:  33; 6HR MAX TEMP:  41; 6HR PCP:  0.03;

PHILLIPS       LGT RAIN  33  33 100 N9        29.64R WCI  26
6HR MIN TEMP:  33; 6HR MAX TEMP:  44; 6HR PCP:  0.01;

TOMAHAWK       CLOUDY    37  36  96 N7G17     29.60R WCI  31
6HR MIN TEMP:  37; 6HR MAX TEMP:  45;

MEDFORD        FOG       39  39  99 NW13G18   29.60R VSB 3/4 WCI  32
6HR MIN TEMP:  34; 6HR MAX TEMP:  47;

MERRILL        NOT AVBL
$$

WIZ029-030-035-036-043>047-230700-
CENTRAL WISCONSIN

CITY           SKY/WX    TMP DP  RH WIND       PRES   REMARKS
WAUSAU         MOCLDY    37  35  92 NW5       29.55R WCI  33
6HR MIN TEMP:  36; 6HR MAX TEMP:  50;

MOSINEE        MOCLDY    37  37 100 SW7       29.57R WCI  32
MARSHFIELD     MOCLDY    44  40  85 NW17G26   29.58R
6HR MIN TEMP:  37; 6HR MAX TEMP:  50;

STEVENS POINT  PTCLDY    32  31  99 SW3       29.58R
6HR MIN TEMP:  30; 6HR MAX TEMP:  46;

WAUPACA        CLEAR     38  34  87 CALM      29.56S
6HR MIN TEMP:  37; 6HR MAX TEMP:  56;

WAUTOMA        CLEAR     35  32  88 W6        29.59  WCI  30
6HR MIN TEMP:  34; 6HR MAX TEMP:  55;

WISC RAPIDS    CLEAR     37  35  92 W5        29.59R WCI  33
6HR MIN TEMP:  31; 6HR MAX TEMP:  50;

CAMP DOUGLAS   CLEAR     47  42  83 W14G23    29.61R
6HR MIN TEMP:  35; 6HR MAX TEMP:  49;

$$

WIZ011>013-019>022-031-037>040-048>050-230700-
NORTHEAST WISCONSIN

CITY           SKY/WX    TMP DP  RH WIND       PRES   REMARKS
ANTIGO         CLOUDY    34  34  99 CALM      29.55F
6HR MIN TEMP:  32; 6HR MAX TEMP:  45;

SHAWANO        CLEAR     39  35  86 NW3       29.56S
6HR MIN TEMP:  38; 6HR MAX TEMP:  53;

OCONTO         CLEAR     38  37  94 NW5       29.55R WCI  35
6HR MIN TEMP:  34; 6HR MAX TEMP:  45;

STURGEON BAY   FOG       37  37 100 N16G22    29.54R VSB 3/4 WCI  28
6HR MIN TEMP:  35; 6HR MAX TEMP:  42;

GREEN BAY      PTCLDY    40  40 100 NW6       29.55R
6HR MIN TEMP:  39; 6HR MAX TEMP:  55;

MANITOWOC      PTCLDY    38  37  97 CALM      29.53R FOG
6HR MIN TEMP:  36; 6HR MAX TEMP:  44;

APPLETON       CLEAR     41  36  81 W7        29.53S
CLINTONVILLE   PTCLDY    36  32  87 CALM      29.56S
OSHKOSH        CLEAR     45  37  73 W6        29.55R
6HR MIN TEMP:  44; 6HR MAX TEMP:  61;

$$

WIZ032>034-041-042-053>061-230700-
SOUTHWEST WISCONSIN

CITY           SKY/WX    TMP DP  RH WIND       PRES   REMARKS
LA CROSSE      CLOUDY    46  41  82 NW7       29.66R
6HR MIN TEMP:  41; 6HR MAX TEMP:  54;

SPARTA         MOCLDY    38  36  94 CALM      29.65R
6HR MIN TEMP:  34; 6HR MAX TEMP:  55;

VIROQUA        CLEAR     46  42  88 W12       29.65R
6HR MIN TEMP:  45; 6HR MAX TEMP:  56;

BOSCOBEL       CLEAR     51  44  77 W5        29.67R
6HR MIN TEMP:  48; 6HR MAX TEMP:  65;

PRAIRIE DU CHI MOCLDY    47  41  81 W6        29.69R
6HR MIN TEMP:  46; 6HR MAX TEMP:  61;

PLATTEVILLE    CLEAR     46  44  94 W12       29.67R
6HR MIN TEMP:  46; 6HR MAX TEMP:  60;

$$

WIZ056-057-062-063-064-067-068-230700-
SOUTH CENTRAL WISCONSIN

CITY           SKY/WX    TMP DP  RH WIND       PRES   REMARKS
REEDSBURG      CLEAR     48  44  85 W9        29.61R
6HR MIN TEMP:  46; 6HR MAX TEMP:  61;

BARABOO/DELLS  CLEAR     47  40  77 W8        29.61R
6HR MIN TEMP:  46; 6HR MAX TEMP:  62;

LONE ROCK      CLEAR     48  42  80 W10       29.64R
6HR MIN TEMP:  47; 6HR MAX TEMP:  64;

MINERAL POINT  CLEAR     48  45  87 W8        29.65R
MADISON        CLEAR     49  42  77 MISG      29.60R
6HR MIN TEMP:  49; 6HR MAX TEMP:  64;

MIDDLETON      CLEAR     49  42  79 W7        29.62R
6HR MIN TEMP:  49; 6HR MAX TEMP:  64;

WATERTOWN      CLEAR     51  45  79 W7        29.59R
6HR MIN TEMP:  51; 6HR MAX TEMP:  61;

MONROE         PTCLDY    50  43  76 W13       29.63R
JANESVILLE     CLEAR     52  45  76 W9        29.63R
$$

WIZ051-052-058>065-066-070>072-230700-
SOUTHEAST WISCONSIN

CITY           SKY/WX    TMP DP  RH WIND       PRES   REMARKS
MILWAUKEE      CLEAR     57  50  77 W12G22    29.57R
6HR MIN TEMP:  57; 6HR MAX TEMP:  64;

WAUKESHA       CLEAR     52  45  76 W15G24    29.59R
MILWAUKEE/TIMM CLEAR     54  45  71 W16       29.57R
RACINE         CLEAR     56  51  84 W13       29.58R
6HR MIN TEMP:  55; 6HR MAX TEMP:  62;

KENOSHA        CLEAR     55  51  86 W16       29.58R
6HR MIN TEMP:  55; 6HR MAX TEMP:  63;

FOND DU LAC    CLEAR     48  37  65 W7        29.57R
6HR MIN TEMP:  47; 6HR MAX TEMP:  61; 6HR PCP: TRACE;

SHEBOYGAN      CLEAR     51  47  86 W9        29.53R
6HR MIN TEMP:  41; 6HR MAX TEMP:  51;

WEST BEND      CLEAR     54  48  82 W10G17    29.56R
JUNEAU         CLEAR     49  41  74 W7        29.60R
6HR MIN TEMP:  48; 6HR MAX TEMP:  59;

$$

LSZ147-162-230700-
LAKE SUPERIOR

STATION/POSITION TIME  TEMP    WIND        PRES    WAVE
                       AIR SEA DIR/SP/G            HT/PER
                 (UTC) (F)     (DEG/KT/KT) (MB)    (FT/S)
DEVILS ISLAND    0600   33      10/ 12/ 13 1008.4R
PORT WING        0540   32     320/  2/  3 1008.1R
SAXON HARBOR     0530   33     350/ 10/ 13 1006.4R
$$

LMZ867-665-643>646-230700-
LAKE MICHIGAN

STATION/POSITION TIME  TEMP    WIND        PRES    WAVE
                       AIR SEA DIR/SP/G            HT/PER
                 (UTC) (F)     (DEG/KT/KT) (MB)    (FT/S)
CHAMBERS ISLAND  0540   35     320/  6/  9 1000.0S
NORTHPORT PIER   0540   35     320/ 10/ 12 1000.7R
SISTER BAY


USA.gov is the U.S. government's official web portal to all federal, state and local government web resources and services.